Showing default

ICEYE-X41, 62700

Orbit data source: Space-Track

ICEYE-X41, 62700 is a payload satellite owned by ICEYE US (US) in SSO that was launched on Tue, 14 Jan 2025 UTC via an FALCON 9 launch vehicle from the Air Force Western Test Range (AFWTR). Payload-class satellites include a variety of spacecraft equipped with specific instruments for various scientific and technological missions. These include communications satellites like Starlink; space stations such as the ISS; scientific satellites like the Hubble; Earth observation satellites from companies like Planet Labs, Umbra, and HawkEye 360; GPS; miniature CubeSats for education and research; and military/defense satellites.

Loading next visibility...
Identifier
62700, 2025-009CV
Orbit
SSO
Country
Flag of USUS
Related business
Manufacturer
ICEYE
Mission
Operational Commercial Radar Imaging
Bus & Motor
ICEYE, Unknown motor
Mass
80 kg wet, 80 kg dry
Launch date (UTC)
2025-01-14 (2 years ago)
Launch vehicle
FALCON 9
Launch site
Air Force Western Test Range (AFWTR)
Object type
Payload
Rocket body
Debris
Shape & HBR
Box + 1 Pan, 0.8 m
Radar Cross Section
0.776 m², Medium (>0.1 m² and < 1m²)

Expand to show TLE details & history
Last TLE update: 6 hours ago

TLE from 6 hours ago
0 ICEYE-X41
1 62700U 25009CV  26256.16812538  .00002851  00000-0  25145-3 0  9992
2 62700  97.7016 334.4150 0003371  94.7245 265.4362 14.97205616 90572
Epoch: 2026-09-13T04:02Z
TLE epoch observation values (Epoch: 2026-09-13T04:02:06.032Z)
Latitude
-0.00004°
Longitude
-78.27678°
Altitude
578.773 km
Speed
7.571 km/s
True Right ascension
22h 17m 39s
True Declination
0° 00' 00"
Sunlit
Object was in full shadow at epoch
Visualization orbit readout
Latitude
Unknown
Longitude
Unknown
Altitude
Unknown
Speed
Unknown
Apparent Right ascension
Unknown
Apparent Declination
Unknown
Sunlit
N/A
Visualization observer readout
Local Sidereal Time
02:48:43
Azimuth
Unknown
Elevation
Unknown
Doppler factor
Unknown
Orbital elements
Apogee altitude
574.887 km
Perigee altitude
570.201 km
Semi-major axis
6,950.681 km
Eccentricity
0.00034
Inclination
97.7016°
RAAN
334.415°
Arg. of periapsis
94.7245°
True anomaly
265.39769°
Mean anomaly
265.4362°
Eccentric anomaly
265.41695°
Mean motion
3.74543 °/min
Orbital period
96.12 mins
BSTAR
0.00025145
Loading maneuver chart data...
Computing Atmospheric mass density...
Loading historical data...
Loading historical data...
Loading historical data...
Loading historical data...
Loading historical data...
Loading historical data...
Loading historical data...

Documentation

Showing up to 5 results
|